15 daagse weersverwachting Ansfelden (AT)

  • Overzicht
  • Per uur
  • 15 dagen
  • Extra
  • Vergelijk
  • Kaarten
  • Dagkaart
  • Meer »
  • Info
  • Statistieken
  • Directe link
    Temp 6h Neerslag Wind  
 05:03     21:06    Daglengte: 16:03 Vandaag
14:00
28°
 
3
20:00
23°
8.4 mm
3
 05:04     21:07    Daglengte: 16:03 Morgen
02:00
18°
11.7 mm
3
08:00
19°
10.1 mm
2
14:00
25°
 
2
20:00
23°
 
3
 05:04     21:07    Daglengte: 16:03 Zaterdag 22 Jun
02:00
18°
 
1
08:00
19°
6.0 mm
3
14:00
23°
4.5 mm
5
warningclass
20:00
20°
10.2 mm
4
 05:04     21:07    Daglengte: 16:03 Zondag 23 Jun
02:00
18°
21.1 mm
2
08:00
18°
 
2
Locatie info
Region: OberŲsterreich
Latitude: 48.2100°N
Longitude: 14.2908°E
278 masl
Postcode: 4052
Temp/Neerslag /Baro Onweer/Dauwpunt
    Temp Baro 1h Neerslag Dauwpunt Wind UV Bewolking  
 05:03     21:06    Daglengte: 16:03 Vandaag
12:00
26°
1012.2 hPa   16.7°
4
Windvlaag: 0.4 km/h
30%
13:00
28°
1011.7 hPa   16.3°
3
Windvlaag: -0.2 km/h
20%
14:00
28°
1011.2 hPa
35%
16.1°
3
Windvlaag: -0.6 km/h
19%
15:00
29°
1010.9 hPa
68%
16.9°
3
Windvlaag: -0.5 km/h
18%
16:00
28°
1010.8 hPa
82%
15.6°
2
Windvlaag: -0.9 km/h
54%
17:00
26°
1011.2 hPa 2.3 mm
82%
15.4°
2
Windvlaag: 0.1 km/h
69% warningclass
18:00
25°
1011.3 hPa 3.6 mm
82%
15.2°
2
Windvlaag: -0.2 km/h
71%
19:00
24°
1011.7 hPa 2.6 mm
79%
15.8°
3
Windvlaag: -0.7 km/h
83%
20:00
23°
1012.2 hPa
78%
17.0°
3
Windvlaag: -0.5 km/h
55%
21:00
22°
1013.0 hPa 2.6 mm
71%
17.3°
3
Windvlaag: -0.1 km/h
57%
22:00
21°
1013.7 hPa
64%
17.8°
3
Windvlaag: 0.5 km/h
49%
23:00
20°
1014.2 hPa 1.8 mm
74%
17.8°
4
Windvlaag: -0 km/h
57%
 05:04     21:07    Daglengte: 16:03 Morgen
00:00
19°
1014.7 hPa 2.1 mm
82%
17.7°
3
Windvlaag: 0.2 km/h
52%
01:00
19°
1015.1 hPa 2.7 mm
82%
17.4°
4
Windvlaag: 2.3 km/h
75%
02:00
18°
1015.3 hPa 2.5 mm
82%
17.3°
3
Windvlaag: 2 km/h
62%
03:00
18°
1015.4 hPa 3.1 mm
81%
17.2°
2
Windvlaag: 1.8 km/h
77%
04:00
18°
1015.6 hPa 3.6 mm
82%
17.1°
2
Windvlaag: 1.5 km/h
67%
05:00
18°
1015.7 hPa 3.4 mm
70%
17.0°
2
Windvlaag: 1 km/h
36%
06:00
18°
1016.0 hPa
16%
16.9°
2
Windvlaag: 0.6 km/h
33%
07:00
18°
1016.4 hPa
21%
16.7°
2
Windvlaag: 0.6 km/h
51%
08:00
19°
1016.7 hPa
22%
16.5°
2
Windvlaag: 0.6 km/h
70%
09:00
19°
1016.9 hPa
22%
16.3°
3
Windvlaag: 0.7 km/h
40%
10:00
21°
1017.1 hPa
70%
16.2°
3
Windvlaag: 0.8 km/h
51%
11:00
22°
1017.1 hPa
82%
15.9°
3
Windvlaag: 0.9 km/h
64%
12:00
23°
1017.1 hPa
78%
15.1°
2
Windvlaag: 0.8 km/h
55%
13:00
24°
1016.5 hPa
33%
15.0°
2
Windvlaag: 0.6 km/h
30%
14:00
25°
1016.0 hPa
26%
14.6°
2
Windvlaag: 0.1 km/h
33%
15:00
25°
1015.6 hPa
69%
13.6°
2
Windvlaag: 0.8 km/h
47%
16:00
25°
1015.3 hPa
82%
13.3°
2
Windvlaag: 0.6 km/h
51%
17:00
25°
1015.2 hPa
80%
13.1°
2
Windvlaag: 0.2 km/h
35%
18:00
24°
1015.3 hPa
80%
13.4°
3
Windvlaag: 1.2 km/h
43%
19:00
24°
1015.5 hPa
80%
14.6°
3
Windvlaag: 1.6 km/h
48%
20:00
23°
1016.0 hPa
36%
16.5°
3
Windvlaag: 0.5 km/h
52%
21:00
21°
1016.6 hPa
20%
16.8°
2
Windvlaag: 0.5 km/h
50%
22:00
20°
1017.3 hPa
21%
17.2°
2
Windvlaag: 0.5 km/h
58%
23:00
20°
1017.6 hPa
17%
16.5°
2
Windvlaag: 0.3 km/h
61%
 05:04     21:07    Daglengte: 16:03 Zaterdag 22 Jun
00:00
19°
1017.8 hPa
64%
16.1°
2
Windvlaag: 0.2 km/h
39%
01:00
18°
1017.9 hPa
70%
16.2°
1
Windvlaag: 0.2 km/h
48%
02:00
18°
1017.8 hPa
69%
16.2°
1
Windvlaag: 0.3 km/h
46%
03:00
18°
1017.8 hPa 3.1 mm
15%
16.3°
1
Windvlaag: 0.2 km/h
47%
04:00
17°
1017.9 hPa
14%
16.3°
1
Windvlaag: 0.3 km/h
54%
05:00
17°
1018.2 hPa
21%
16.6°
1
Windvlaag: 0 km/h
72%
06:00
17°
1018.3 hPa
32%
16.7°
1
Windvlaag: -0.4 km/h
82%
07:00
18°
1018.5 hPa
25%
17.1°
2
Windvlaag: -0.5 km/h
83%
08:00
19°
1018.5 hPa 2.9 mm
21%
17.3°
3
Windvlaag: -0.3 km/h
78%
09:00
19°
1018.1 hPa 4.5 mm
21%
17.5°
3
Windvlaag: -0.6 km/h
70% warningclass
10:00
20°
1017.7 hPa
21%
17.7°
3
Windvlaag: -0.1 km/h
76%
11:00
21°
1017.4 hPa
22%
17.9°
4
Windvlaag: 0.3 km/h
77%
12:00
22°
1017.0 hPa
22%
18.1°
4
Windvlaag: -0.1 km/h
80%
13:00
22°
1016.6 hPa
24%
18.3°
5
Windvlaag: -1.2 km/h
77%
14:00
23°
1016.1 hPa
92%
18.4°
5
Windvlaag: -0.5 km/h
57%
15:00
23°
1015.8 hPa
52%
18.6°
5
Windvlaag: -0.7 km/h
85%
16:00
22°
1015.6 hPa
80%
18.8°
5
Windvlaag: -0.4 km/h
86%
17:00
22°
1015.4 hPa
30%
18.6°
5
Windvlaag: -1.6 km/h
89%
18:00
21°
1015.2 hPa
23%
18.4°
4
Windvlaag: -2.7 km/h
88%
19:00
21°
1015.1 hPa 5.1 mm
21%
18.2°
5
Windvlaag: -1.3 km/h
92%
20:00
20°
1015.2 hPa 5.2 mm
21%
18.1°
4
Windvlaag: 0 km/h
92%
21:00
20°
1015.3 hPa 5.2 mm
21%
17.8°
4
Windvlaag: -0.8 km/h
93%
22:00
19°
1015.5 hPa 5.2 mm
21%
17.5°
3
Windvlaag: -0.9 km/h
86%
23:00
19°
1015.7 hPa 5.4 mm
21%
17.3°
2
Windvlaag: -1 km/h
90%
 05:04     21:07    Daglengte: 16:03 Zondag 23 Jun
00:00
18°
1015.9 hPa 5.3 mm
21%
17.1°
2
Windvlaag: -1.7 km/h
89%
01:00
18°
1016.0 hPa
21%
17.0°
2
Windvlaag: -1.3 km/h
88%
02:00
18°
1016.1 hPa
21%
17.0°
2
Windvlaag: -0.2 km/h
87%
03:00
18°
1016.2 hPa
21%
17.0°
1
Windvlaag: 4.5 km/h
86%
04:00
18°
1016.3 hPa
24%
16.9°
2
Windvlaag: 5.7 km/h
100%
05:00
18°
1016.4 hPa
23%
16.8°
2
Windvlaag: 6.1 km/h
85%
06:00
18°
1016.7 hPa
24%
16.7°
2
Windvlaag: 4.8 km/h
88%
07:00
18°
1017.0 hPa
26%
16.9°
2
Windvlaag: 5.5 km/h
92%
08:00
18°
1017.1 hPa
27%
16.9°
2
Windvlaag: 0.9 km/h
99%
09:00
19°
1016.9 hPa 24.6 mm
100%
17.0°
2
Windvlaag: 7.4 km/h
96%
10:00
19°
1017.1 hPa 25.5 mm
100%
17.1°
2
Windvlaag: 7.9 km/h
93%
11:00
20°
1017.4 hPa 27.3 mm
100%
17.2°
2
Windvlaag: 6.9 km/h
95%
Temp/Neerslag /Baro Onweer/Dauwpunt
    Temp Baro Neerslag Dauwpunt Wind Bewolking  
 05:03     21:06    Daglengte: 16:03 Vandaag
14:00
28°
1011.2 hPa   16.1°
3
19%
17:00
26°
1011.2 hPa 2.3 mm 15.4°
2
69% warningclass
20:00
23°
1012.2 hPa 6.1 mm 17.0°
3
55%
23:00
20°
1014.2 hPa 4.4 mm 17.8°
4
57%
 05:04     21:07    Daglengte: 16:03 Morgen
02:00
18°
1015.3 hPa 7.3 mm 17.3°
3
62%
05:00
18°
1015.7 hPa 10.1 mm 17.0°
2
36%
08:00
19°
1016.7 hPa   16.5°
2
70%
11:00
22°
1017.1 hPa   15.9°
3
64%
14:00
25°
1016.0 hPa   14.6°
2
33%
17:00
25°
1015.2 hPa   13.1°
2
35%
20:00
23°
1016.0 hPa   16.5°
3
52%
23:00
20°
1017.6 hPa   16.5°
2
61%
 05:04     21:07    Daglengte: 16:03 Zaterdag 22 Jun
02:00
18°
1017.8 hPa   16.2°
1
46%
05:00
17°
1018.2 hPa 3.1 mm 16.6°
1
72%
08:00
19°
1018.5 hPa 2.9 mm 17.3°
3
78%
11:00
21°
1017.4 hPa 4.5 mm 17.9°
4
77%
14:00
23°
1016.1 hPa   18.4°
5
57%
17:00
22°
1015.4 hPa   18.6°
5
89%
20:00
20°
1015.2 hPa 10.2 mm 18.1°
4
92%
23:00
19°
1015.7 hPa 15.8 mm 17.3°
2
90%
 05:04     21:07    Daglengte: 16:03 Zondag 23 Jun
02:00
18°
1016.1 hPa 5.3 mm 17.0°
2
87%
05:00
18°
1016.4 hPa   16.8°
2
85%
08:00
18°
1017.1 hPa   16.9°
2
99%
11:00
20°
1017.4 hPa 77.4 mm 17.2°
2
95%
14:00
21°
1017.9 hPa 86.9 mm 17.5°
3
90%
17:00
21°
1019.4 hPa 75.3 mm 18.5°
2
78%
20:00
21°
1020.0 hPa 76.7 mm 19.1°
1
74%
23:00
19°
1020.9 hPa 76.9 mm 16.9°
1
74%
 05:05     21:07    Daglengte: 16:02 Maandag 24 Jun
02:00
17°
1021.6 hPa 76.9 mm 14.9°
1
74%
05:00
18°
1022.2 hPa 76.9 mm 14.4°
1
81%
08:00
19°
1022.8 hPa 76.9 mm 14.1°
2
87%
11:00
22°
1022.6 hPa 76.9 mm 15.2°
2
85%
14:00
25°
1022.3 hPa 76.9 mm 16.1°
2
83%
17:00
25°
1022.1 hPa 76.9 mm 17.7°
2
45%
20:00
24°
1022.1 hPa 76.9 mm 19.0°
1
7%
23:00
20°
1023.3 hPa 76.9 mm 16.4°
2
14%
 05:05     21:07    Daglengte: 16:02 Dinsdag 25 Jun
02:00
17°
1024.4 hPa 76.9 mm 13.9°
2
21%
05:00
18°
1024.7 hPa 76.9 mm 13.9°
2
36%
08:00
20°
1025.1 hPa 76.9 mm 14.1°
3
50%
11:00
24°
1024.3 hPa 76.9 mm 15.6°
3
25%
14:00
28°
1023.5 hPa 76.9 mm 16.7°
4
0%
17:00
27°
1023.1 hPa 76.9 mm 17.5°
3
0%
20:00
25°
1022.9 hPa 76.9 mm 18.0°
3
0%
23:00
23°
1023.6 hPa 76.9 mm 16.9°
3
0%
 05:05     21:07    Daglengte: 16:02 Woensdag 26 Jun
02:00
21°
1024.1 hPa 76.9 mm 15.8°
4
0%
05:00
21°
1023.7 hPa 76.9 mm 16.4°
4
0%
08:00
22°
1023.3 hPa 76.9 mm 17.3°
5
0%
11:00
26°
1022.3 hPa 76.9 mm 18.9°
5
0%
14:00
30°
1021.4 hPa 76.9 mm 19.9°
5
0%
17:00
29°
1020.5 hPa 76.9 mm 20.0°
4
0%
20:00
27°
1019.8 hPa 76.9 mm 19.9°
4
0%
23:00
24°
1020.1 hPa 76.9 mm 18.9°
3
0%
 05:06     21:07    Daglengte: 16:01 Donderdag 27 Jun
02:00
21°
1020.2 hPa 76.9 mm 17.6°
2
0%
05:00
21°
1020.1 hPa 76.9 mm 17.9°
2
0%
08:00
22°
1020.0 hPa 76.9 mm 18.3°
2
0%
11:00
27°
1019.1 hPa   19.9°
1
1%
14:00
31°
1018.1 hPa 153.8 mm 20.9°
0
2%
20:00
29°
1016.3 hPa 153.8 mm 23.5°
1
0%
 05:06     21:07    Daglengte: 16:01 Vrijdag 28 Jun
02:00
21°
1017.6 hPa 153.8 mm 18.0°
2
0%
08:00
24°
1017.4 hPa 153.8 mm 19.3°
1
0%
14:00
34°
1015.1 hPa 153.8 mm 19.4°
2
0%
20:00
31°
1012.9 hPa 153.8 mm 19.9°
1
1%
 05:07     21:07    Daglengte: 16:00 Zaterdag 29 Jun
02:00
24°
1013.6 hPa 153.8 mm 17.7°
1
0%
08:00
21°
1013.6 hPa 153.9 mm 18.4°
1
0%
14:00
30°
1012.5 hPa 155.7 mm 22.4°
2
1%
20:00
26°
1013.3 hPa 159.4 mm 23.6°
2
1%
 05:07     21:07    Daglengte: 16:00 Zondag 30 Jun
02:00
21°
1015.9 hPa 169.1 mm 19.8°
1
1%
08:00
23°
1015.5 hPa 0.8 mm 18.3°
1
30%
14:00
31°
1014.2 hPa 0.3 mm 17.9°
2
25%
20:00
26°
1014.0 hPa 1.0 mm 20.8°
1
27%
 05:08     21:06    Daglengte: 15:58 Maandag 01 Jul
02:00
19°
1014.9 hPa 0.6 mm 16.3°
1
35%
08:00
22°
1014.6 hPa 0.4 mm 17.9°
1
37%
14:00
28°
1012.9 hPa 1.2 mm 18.1°
2
34%
20:00
24°
1012.9 hPa 1.6 mm 19.2°
1
48%
 05:09     21:06    Daglengte: 15:57 Dinsdag 02 Jul
02:00
17°
1013.6 hPa 1.7 mm 15.5°
1
47%
08:00
19°
1013.4 hPa 2.3 mm 16.4°
2
49%
14:00
24°
1012.6 hPa 2.1 mm 16.5°
2
52%
20:00
21°
1012.7 hPa 1.3 mm 17.2°
1
49%
 05:09     21:06    Daglengte: 15:57 Woensdag 03 Jul
02:00
15°
1013.6 hPa 1.1 mm 14.1°
1
54%
08:00
17°
1013.8 hPa 1.9 mm 15.0°
1
58%
14:00
22°
1013.0 hPa 1.9 mm 15.7°
1
56%
20:00
20°
1012.9 hPa 2.1 mm 16.6°
1
62%
 05:10     21:06    Daglengte: 15:56 Donderdag 04 Jul
02:00
15°
1014.0 hPa 2.8 mm 13.7°
1
59%
08:00
17°
1014.8 hPa 1.6 mm 14.3°
1
50%
14:00
23°
1014.0 hPa 0.8 mm 14.6°
2
46%
20:00
21°
1014.0 hPa 1.1 mm 15.8°
1
47%
 05:11     21:05    Daglengte: 15:54 Vrijdag 05 Jul
02:00
14°
1015.5 hPa 0.5 mm 12.8°
1
45%
08:00
17°
1016.1 hPa 1.0 mm 14.2°
1
49%
  CAPE Lifted Index Hail Supercell Tornado SRH 3km CL BTM PRES CL TOP PRES Swiss DWD icon SMHI TS
 05:03     21:06    Daglengte: 16:03 Vandaag
12:00 1134 J/kg -4.5 K 0 % 0 % 0 % 0 m²/s² 0 0 -2.67 1
13:00 1490 J/kg -5.7 K 0 % 0 % 0 % 0 m²/s² 0 0 -3.66 0
14:00 1575 J/kg -5.8 K 0 % 0 % 0 % 0 m²/s² 0 0 -3.61 1
15:00 1679 J/kg -6.3 K 0 % 0 % 0 % 0 m²/s² 0 0 -4.17 1
16:00 1534 J/kg -6.2 K 0 % 0 % 0 % 0 m²/s² 0 0 -5.15 3
17:00 226 J/kg -1.9 K 0 % 0 % 0 % 0 m²/s² 0 0 -1.63 95
18:00 0 J/kg -1.1 K 0 % 0 % 0 % 0 m²/s² 0 0 -0.26 80
19:00 0 J/kg 0.5 K 0 % 0 % 0 % 0 m²/s² 0 0 1.31 80
20:00 0 J/kg 1.7 K 0 % 0 % 0 % 0 m²/s² 0 0 2.6 80
21:00 0 J/kg 0.7 K 0 % 0 % 0 % 0 m²/s² 0 0 1.87 3
22:00 0 J/kg -0.6 K 0 % 0 % 0 % 0 m²/s² 0 0 0.45 3
23:00 0 J/kg -0.8 K 0 % 0 % 0 % 0 m²/s² 0 0 -0.08 3
 05:04     21:07    Daglengte: 16:03 Morgen
00:00 0 J/kg -0.4 K 0 % 0 % 0 % 0 m²/s² 0 0 0.32 2
01:00 0 J/kg -0.2 K 0 % 0 % 0 % 0 m²/s² 0 0 1.12 80
02:00 0 J/kg 0.4 K 0 % 0 % 0 % 0 m²/s² 0 0 1.66 80
03:00 0 J/kg 0.5 K 0 % 0 % 0 % 0 m²/s² 0 0 2.15 80
04:00 0 J/kg 0.2 K 0 % 0 % 0 % 0 m²/s² 0 0 2.57 80
05:00 0 J/kg 0.9 K 0 % 0 % 0 % 0 m²/s² 0 0 3.15 80
06:00 0 J/kg 1.3 K 0 % 0 % 0 % 0 m²/s² 0 0 3.91 3
07:00 0 J/kg 1.0 K 0 % 0 % 0 % 0 m²/s² 0 0 3.67 3
08:00 0 J/kg 1.2 K 0 % 0 % 0 % 0 m²/s² 0 0 4.11 3
09:00 0 J/kg 0.9 K 0 % 0 % 0 % 0 m²/s² 0 0 3.57 2
10:00 26 J/kg -0.2 K 0 % 0 % 0 % 0 m²/s² 0 0 2.47 3
11:00 153 J/kg -0.7 K 0 % 0 % 0 % 0 m²/s² 0 0 2.06 3
12:00 226 J/kg -0.8 K 0 % 0 % 0 % 0 m²/s² 0 0 1.87 2
13:00 231 J/kg -1.0 K 0 % 0 % 0 % 0 m²/s² 0 0 1.91 1
14:00 195 J/kg -0.9 K 0 % 0 % 0 % 0 m²/s² 0 0 2.1 3
15:00 187 J/kg -1.0 K 0 % 0 % 0 % 0 m²/s² 0 0 1.61 3
16:00 277 J/kg -1.6 K 0 % 0 % 0 % 0 m²/s² 0 0 0.65 3
17:00 280 J/kg -1.5 K 0 % 0 % 0 % 0 m²/s² 0 0 0.03 2
18:00 206 J/kg -1.1 K 0 % 0 % 0 % 0 m²/s² 0 0 -0.35 3
19:00 0 J/kg 0.5 K 0 % 0 % 0 % 0 m²/s² 0 0 1.46 3
20:00 0 J/kg 1.1 K 0 % 0 % 0 % 0 m²/s² 0 0 2.15 1
21:00 0 J/kg 2.0 K 0 % 0 % 0 % 0 m²/s² 0 0 2.66 3
22:00 0 J/kg 2.1 K 0 % 0 % 0 % 0 m²/s² 0 0 2.67 3
23:00 0 J/kg 1.5 K 0 % 0 % 0 % 0 m²/s² 0 0 2.25 3
 05:04     21:07    Daglengte: 16:03 Zaterdag 22 Jun
00:00 0 J/kg 1.2 K 0 % 0 % 0 % 0 m²/s² 0 0 1.5 3
01:00 0 J/kg 1.0 K 0 % 0 % 0 % 0 m²/s² 0 0 1.45 3
02:00 0 J/kg 0.2 K 0 % 0 % 0 % 0 m²/s² 0 0 0.86 2
03:00 0 J/kg -0.3 K 0 % 0 % 0 % 0 m²/s² 0 0 0.33 2
04:00 0 J/kg -1.0 K 0 % 0 % 0 % 0 m²/s² 0 0 -1 45
05:00 0 J/kg -1.4 K 0 % 0 % 0 % 0 m²/s² 0 0 -1.19 3
06:00 0 J/kg -1.1 K 0 % 0 % 0 % 0 m²/s² 0 0 -0.23 3
07:00 0 J/kg -1.7 K 0 % 0 % 0 % 0 m²/s² 0 0 -1.07 3
08:00 653 J/kg -2.7 K 0 % 0 % 0 % 0 m²/s² 0 0 -1.74 2
09:00 1039 J/kg -3.9 K 0 % 0 % 0 % 0 m²/s² 0 0 -2.4 2
10:00 1227 J/kg -4.5 K 0 % 0 % 0 % 0 m²/s² 0 0 -2.94 3
11:00 1622 J/kg -5.6 K 0 % 0 % 0 % 0 m²/s² 0 0 -4.34 2
12:00 1809 J/kg -6.1 K 0 % 0 % 0 % 0 m²/s² 0 0 -4.78 2
13:00 2054 J/kg -6.8 K 0 % 0 % 0 % 0 m²/s² 0 0 -5.24 2
14:00 2289 J/kg -7.2 K 0 % 0 % 0 % 0 m²/s² 0 0 -5.58 3
15:00 2428 J/kg -7.7 K 0 % 0 % 0 % 0 m²/s² 0 0 -6.38 3
16:00 2124 J/kg -6.2 K 0 % 0 % 0 % 0 m²/s² 0 0 -5.09 3
17:00 1159 J/kg -3.9 K 0 % 0 % 0 % 0 m²/s² 0 0 -2.73 3
18:00 356 J/kg -1.5 K 0 % 0 % 0 % 0 m²/s² 0 0 -0.45 3
19:00 18 J/kg 0.1 K 0 % 0 % 0 % 0 m²/s² 0 0 0.64 3
20:00 0 J/kg 1.3 K 0 % 0 % 0 % 0 m²/s² 0 0 1.42 3
21:00 0 J/kg 1.7 K 0 % 0 % 0 % 0 m²/s² 0 0 2.42 3
22:00 0 J/kg 1.9 K 0 % 0 % 0 % 0 m²/s² 0 0 2.92 3
23:00 0 J/kg 1.3 K 0 % 0 % 0 % 0 m²/s² 0 0 2.05 3
 05:04     21:07    Daglengte: 16:03 Zondag 23 Jun
00:00 0 J/kg 1.0 K 0 % 0 % 0 % 0 m²/s² 0 0 1.66 3
01:00 0 J/kg 0.9 K 0 % 0 % 0 % 0 m²/s² 0 0 1.56 3
02:00 0 J/kg 1.3 K 0 % 0 % 0 % 0 m²/s² 0 0 2.05 3
03:00 0 J/kg 2.0 K 0 % 0 % 0 % 0 m²/s² 0 0 2.63 3
04:00 0 J/kg 1.5 K 0 % 0 % 0 % 0 m²/s² 0 0 1.8 3
05:00 0 J/kg 1.6 K 0 % 0 % 0 % 0 m²/s² 0 0 1.6 3
06:00 0 J/kg 0.9 K 0 % 0 % 0 % 0 m²/s² 0 0 1.38 3
07:00 19 J/kg 0.9 K 0 % 0 % 0 % 0 m²/s² 0 0 0.93 3
08:00 0 J/kg 0.8 K 0 % 0 % 0 % 0 m²/s² 0 0 0.8 3
09:00 45 J/kg 0.7 K 0 % 0 % 0 % 0 m²/s² 0 0 0.82
10:00 117 J/kg 1.3 K 0 % 0 % 0 % 0 m²/s² 0 0 1.33
11:00 116 J/kg 0.7 K 0 % 0 % 0 % 0 m²/s² 0 0 0.7
Temp Baro Wind Neerslag
  EWN Forecast EWN WRFDA DWD ICON FMI HIRLAM MET Norway GFS
 05:03     21:06    Daglengte: 16:03 Vandaag
14:00 28.4° 1011.2 hPa 2.8 m/s 0.0 mm 26.6° 1011.5 hPa 3.3 m/s 0.0 mm 28.6° 1011.4 hPa 4.7 m/s -2.0 mm 29.8° 1010.7 hPa 2.0 m/s 0.0 mm 27.5° 1011.1 hPa 0.9 m/s 0.9 mm 24.7° 1012.1 hPa 1.2 m/s
17:00 26.2° 1011.2 hPa 2.4 m/s 2.3 mm 19.2° 1013.1 hPa 7.0 m/s 6.7 mm 22.9° 1012.5 hPa 4.5 m/s 1.4 mm 30.6° 1009.3 hPa 2.3 m/s 0.0 mm 26.8° 1011.2 hPa 1.6 m/s 0.3 mm 23.4° 1012.2 hPa 5.1 m/s
20:00 23.4° 1012.2 hPa 2.6 m/s 6.1 mm 18.7° 1013.2 hPa 2.7 m/s 34.8 mm 20.5° 1014.0 hPa 2.7 m/s 3.4 mm 26.6° 1010.4 hPa 2.3 m/s 0.0 mm 23.7° 1012.3 hPa 3.2 m/s 0.0 mm 18.9° 1014.1 hPa 2.0 m/s
23:00 20.1° 1014.2 hPa 3.8 m/s 4.4 mm 16.0° 1014.0 hPa 2.6 m/s 34.9 mm 19.0° 1014.9 hPa 3.6 m/s 0.6 mm 22.1° 1012.5 hPa 4.8 m/s 0.0 mm 20.0° 1015.1 hPa 4.2 m/s 0.7 mm 16.4° 1015.6 hPa 1.3 m/s
 05:04     21:07    Daglengte: 16:03 Morgen
02:00 18.4° 1015.3 hPa 2.7 m/s 7.3 mm 14.3° 1015.4 hPa 2.6 m/s 34.9 mm 17.4° 1016.1 hPa 2.5 m/s 1.0 mm 20.3° 1012.8 hPa 2.5 m/s 0.0 mm 18.5° 1015.9 hPa 2.1 m/s 2.1 mm 15.9° 1016.7 hPa 1.8 m/s
05:00 17.8° 1015.7 hPa 2.4 m/s 10.1 mm 12.2° 1015.3 hPa 2.2 m/s 34.9 mm 17.0° 1016.4 hPa 2.3 m/s 1.2 mm 19.8° 1013.5 hPa 3.6 m/s 0.0 mm 18.1° 1016.3 hPa 1.5 m/s 1.8 mm 15.1° 1016.7 hPa 1.0 m/s
08:00 18.7° 1016.7 hPa 2.4 m/s 0.0 mm 16.3° 1016.0 hPa 2.1 m/s 34.9 mm 18.8° 1017.2 hPa 2.0 m/s 0.0 mm 18.9° 1015.9 hPa 4.8 m/s 0.0 mm 19.8° 1017.0 hPa 1.9 m/s 0.0 mm 18.0° 1017.3 hPa 0.8 m/s
11:00 21.6° 1017.1 hPa 2.7 m/s 0.0 mm 21.3° 1016.3 hPa 2.9 m/s 34.9 mm 22.2° 1017.2 hPa 3.2 m/s 0.1 mm 20.0° 1017.6 hPa 2.8 m/s 0.0 mm 23.3° 1017.1 hPa 1.7 m/s 0.0 mm 22.5° 1017.0 hPa 1.8 m/s
14:00 24.6° 1016.0 hPa 2.4 m/s 0.0 mm 25.2° 1014.6 hPa 1.0 m/s 34.9 mm 25.2° 1016.6 hPa 3.1 m/s 0.0 mm 23.0° 1016.1 hPa 3.2 m/s 0.0 mm 26.4° 1015.0 hPa 2.1 m/s 0.0 mm 24.4° 1016.1 hPa 2.5 m/s
17:00 25.1° 1015.2 hPa 2.3 m/s 0.0 mm 26.3° 1014.6 hPa 2.5 m/s 34.9 mm 25.1° 1015.8 hPa 3.2 m/s 0.1 mm 24.3° 1015.1 hPa 3.1 m/s 0.0 mm 27.1° 1014.3 hPa 2.1 m/s 0.0 mm 25.6° 1015.8 hPa 1.1 m/s
20:00 22.5° 1016.0 hPa 2.5 m/s 0.0 mm 17.2° 1015.9 hPa 3.5 m/s 36.7 mm 22.6° 1016.8 hPa 2.6 m/s 0.1 mm 23.3° 1015.2 hPa 1.8 m/s 0.0 mm 23.4° 1015.8 hPa 3.1 m/s 0.0 mm 21.5° 1016.3 hPa 0.8 m/s
23:00 19.5° 1017.6 hPa 1.8 m/s 0.0 mm 16.0° 1017.3 hPa 1.7 m/s 39.2 mm 19.0° 1017.9 hPa 1.4 m/s 0.0 mm 19.8° 1016.6 hPa 4.0 m/s 0.0 mm 20.2° 1017.6 hPa 1.1 m/s 0.0 mm 17.8° 1018.1 hPa 1.1 m/s
 05:04     21:07    Daglengte: 16:03 Zaterdag 22 Jun
02:00 17.9° 1017.8 hPa 1.0 m/s 0.0 mm 16.2° 1016.5 hPa 0.6 m/s 39.2 mm 17.4° 1018.5 hPa 0.8 m/s 0.2 mm 17.6° 1016.1 hPa 2.5 m/s 0.0 mm 18.7° 1018.0 hPa 1.1 m/s 0.9 mm 17.0° 1018.1 hPa 0.5 m/s
05:00 17.2° 1018.2 hPa 1.1 m/s 3.1 mm 14.7° 1016.2 hPa 2.3 m/s 39.2 mm 16.3° 1018.9 hPa 1.0 m/s 0.0 mm 18.0° 1018.3 hPa 0.6 m/s 3.2 mm 16.5° 1017.5 hPa 1.7 m/s
08:00 18.7° 1018.5 hPa 2.8 m/s 2.9 mm 20.1° 1016.1 hPa 5.1 m/s 39.2 mm 19.3° 1019.0 hPa 3.7 m/s 0.0 mm 18.6° 1018.6 hPa 1.0 m/s 1.9 mm 18.7° 1017.7 hPa 3.0 m/s
11:00 21.1° 1017.4 hPa 4.0 m/s 4.5 mm 24.2° 1015.2 hPa 6.9 m/s 39.2 mm 23.4° 1018.0 hPa 6.5 m/s 0.0 mm 20.6° 1017.5 hPa 2.2 m/s 22.1° 1016.4 hPa 5.4 m/s
14:00 23.0° 1016.1 hPa 5.3 m/s 0.0 mm 25.6° 1013.2 hPa 7.7 m/s 39.2 mm 25.8° 1016.3 hPa 7.7 m/s 0.0 mm 22.6° 1016.3 hPa 3.4 m/s 24.2° 1015.2 hPa 5.6 m/s
17:00 21.9° 1015.4 hPa 5.1 m/s 0.0 mm 22.1° 1013.1 hPa 5.2 m/s 42.7 mm 25.1° 1014.8 hPa 7.1 m/s 0.0 mm 21.5° 1015.7 hPa 3.1 m/s 21.4° 1014.2 hPa 4.3 m/s
20:00 20.3° 1015.2 hPa 4.5 m/s 10.2 mm 18.3° 1014.9 hPa 8.2 m/s 45.1 mm 23.6° 1015.0 hPa 6.1 m/s 0.0 mm 20.3° 1015.1 hPa 2.9 m/s 18.5° 1014.7 hPa 2.7 m/s
23:00 18.8° 1015.7 hPa 2.3 m/s 15.8 mm 16.8° 1014.8 hPa 1.7 m/s 45.8 mm 19.9° 1015.7 hPa 4.6 m/s 0.0 mm 19.1° 1015.7 hPa 1.9 m/s 17.7° 1015.6 hPa 1.1 m/s
 05:04     21:07    Daglengte: 16:03 Zondag 23 Jun
02:00 17.8° 1016.1 hPa 1.6 m/s 5.3 mm 16.7° 1014.3 hPa 2.2 m/s 45.9 mm 18.3° 1016.6 hPa 3.1 m/s 0.0 mm 17.9° 1016.2 hPa 1.0 m/s 16.9° 1015.9 hPa 2.4 m/s
05:00 17.7° 1016.4 hPa 1.7 m/s 0.0 mm 16.1° 1013.3 hPa 3.6 m/s 51.0 mm 17.6° 1017.5 hPa 2.0 m/s 0.0 mm 18.1° 1016.7 hPa 1.1 m/s 16.3° 1016.7 hPa 2.6 m/s
08:00 18.2° 1017.1 hPa 2.3 m/s 0.0 mm 16.7° 1014.3 hPa 4.0 m/s 64.4 mm 18.7° 1019.1 hPa 3.3 m/s 0.0 mm 18.3° 1017.1 hPa 1.2 m/s 16.1° 1017.9 hPa 2.9 m/s
11:00 19.6° 1017.4 hPa 2.4 m/s 77.4 mm 18.6° 1015.0 hPa 4.2 m/s 77.4 mm 19.8° 1017.8 hPa 2.0 m/s 16.6° 1018.9 hPa 1.8 m/s
14:00 21.3° 1017.9 hPa 2.9 m/s 86.9 mm 21.3° 1015.1 hPa 3.0 m/s 86.9 mm 21.3° 1018.4 hPa 2.9 m/s 17.3° 1019.1 hPa 1.3 m/s
17:00 20.9° 1019.4 hPa 1.5 m/s 75.3 mm 21.0° 1019.4 hPa 1.6 m/s 20.5° 1018.9 hPa 1.0 m/s 75.3 mm
20:00 20.7° 1020.0 hPa 0.9 m/s 76.7 mm 20.8° 1019.9 hPa 0.9 m/s 19.6° 1020.6 hPa 1.1 m/s 76.7 mm
23:00 19.0° 1020.9 hPa 1.1 m/s 76.9 mm 19.2° 1020.7 hPa 0.9 m/s 16.0° 1022.8 hPa 2.2 m/s 76.9 mm
 05:05     21:07    Daglengte: 16:02 Maandag 24 Jun
02:00 17.4° 1021.6 hPa 1.1 m/s 76.9 mm 17.7° 1021.5 hPa 1.0 m/s 14.5° 1023.1 hPa 1.6 m/s 76.9 mm
05:00 18.1° 1022.2 hPa 1.4 m/s 76.9 mm 18.5° 1022.1 hPa 1.4 m/s 13.6° 1022.6 hPa 1.6 m/s 76.9 mm
08:00 19.2° 1022.8 hPa 1.8 m/s 76.9 mm 19.3° 1022.8 hPa 1.8 m/s 17.7° 1023.2 hPa 1.7 m/s 76.9 mm
11:00 22.2° 1022.6 hPa 2.0 m/s 76.9 mm 22.1° 1022.5 hPa 1.9 m/s 22.4° 1022.9 hPa 3.0 m/s 76.9 mm
14:00 25.0° 1022.3 hPa 2.1 m/s 76.9 mm 25.0° 1022.3 hPa 2.0 m/s 25.0° 1022.2 hPa 3.6 m/s 76.9 mm
17:00 24.6° 1022.1 hPa 1.5 m/s 76.9 mm 24.4° 1022.1 hPa 1.4 m/s 25.8° 1021.9 hPa 3.2 m/s 76.9 mm
20:00 23.8° 1022.1 hPa 0.9 m/s 76.9 mm 23.9° 1022.0 hPa 0.7 m/s 22.1° 1022.9 hPa 2.6 m/s 76.9 mm
23:00 20.2° 1023.3 hPa 1.5 m/s 76.9 mm 20.4° 1023.1 hPa 1.4 m/s 17.9° 1025.1 hPa 2.8 m/s 76.9 mm
 05:05     21:07    Daglengte: 16:02 Dinsdag 25 Jun
02:00 17.0° 1024.4 hPa 2.2 m/s 76.9 mm 17.0° 1024.3 hPa 2.1 m/s 16.7° 1025.2 hPa 2.9 m/s 76.9 mm
05:00 18.4° 1024.7 hPa 2.3 m/s 76.9 mm 18.6° 1024.7 hPa 2.3 m/s 15.6° 1024.8 hPa 2.5 m/s 76.9 mm
08:00 20.3° 1025.1 hPa 2.6 m/s 76.9 mm 20.3° 1025.1 hPa 2.5 m/s 19.8° 1025.3 hPa 3.4 m/s 76.9 mm
11:00 24.0° 1024.3 hPa 3.1 m/s 76.9 mm 24.0° 1024.2 hPa 3.0 m/s 24.4° 1024.8 hPa 4.4 m/s 76.9 mm
14:00 27.6° 1023.5 hPa 3.6 m/s 76.9 mm 27.7° 1023.4 hPa 3.5 m/s 27.0° 1024.2 hPa 4.7 m/s 76.9 mm
17:00 26.6° 1023.1 hPa 3.2 m/s 76.9 mm 26.5° 1023.0 hPa 3.1 m/s 26.9° 1023.8 hPa 4.1 m/s 76.9 mm
20:00 25.1° 1022.9 hPa 2.8 m/s 76.9 mm 25.4° 1022.7 hPa 2.8 m/s 22.3° 1024.9 hPa 2.8 m/s 76.9 mm
23:00 22.7° 1023.6 hPa 3.3 m/s 76.9 mm 23.2° 1023.2 hPa 3.4 m/s 17.8° 1027.1 hPa 2.0 m/s 76.9 mm
 05:05     21:07    Daglengte: 16:02 Woensdag 26 Jun
02:00 20.6° 1024.1 hPa 3.8 m/s 76.9 mm 21.0° 1023.8 hPa 4.0 m/s 16.2° 1027.1 hPa 1.7 m/s 76.9 mm
05:00 21.2° 1023.7 hPa 4.3 m/s 76.9 mm 21.8° 1023.4 hPa 4.6 m/s 14.8° 1026.8 hPa 1.3 m/s 76.9 mm
08:00 22.3° 1023.3 hPa 4.9 m/s 76.9 mm 22.6° 1023.0 hPa 5.2 m/s 19.2° 1026.5 hPa 1.9 m/s 76.9 mm
11:00 26.4° 1022.3 hPa 5.0 m/s 76.9 mm 26.6° 1022.0 hPa 5.2 m/s 24.2° 1025.6 hPa 3.0 m/s 76.9 mm
14:00 30.4° 1021.4 hPa 5.1 m/s 76.9 mm 30.7° 1021.1 hPa 5.2 m/s 27.0° 1024.4 hPa 3.5 m/s 76.9 mm
17:00 29.0° 1020.5 hPa 4.4 m/s 76.9 mm 29.2° 1020.3 hPa 4.5 m/s 26.7° 1023.0 hPa 3.4 m/s 76.9 mm
20:00 27.2° 1019.8 hPa 3.8 m/s 76.9 mm 27.7° 1019.5 hPa 3.9 m/s 22.3° 1023.0 hPa 2.8 m/s 76.9 mm
23:00 23.9° 1020.1 hPa 3.0 m/s 76.9 mm 24.4° 1019.7 hPa 3.1 m/s 18.3° 1024.2 hPa 2.0 m/s 76.9 mm
 05:06     21:07    Daglengte: 16:01 Donderdag 27 Jun
02:00 20.7° 1020.2 hPa 2.3 m/s 76.9 mm 21.1° 1019.9 hPa 2.3 m/s 16.7° 1023.9 hPa 1.8 m/s 76.9 mm
05:00 21.3° 1020.1 hPa 2.1 m/s 76.9 mm 21.9° 1019.8 hPa 2.1 m/s 15.5° 1023.1 hPa 1.6 m/s 76.9 mm
08:00 22.4° 1020.0 hPa 1.9 m/s 76.9 mm 22.6° 1019.8 hPa 1.9 m/s 19.7° 1022.7 hPa 1.8 m/s 76.9 mm
11:00 26.6° 1019.1 hPa 1.2 m/s 76.9 mm 26.8° 1018.8 hPa 1.0 m/s 24.4° 1021.8 hPa 2.7 m/s 76.9 mm
14:00 30.6° 1018.1 hPa 0.4 m/s 76.9 mm 30.9° 1017.9 hPa 0.2 m/s 27.6° 1020.4 hPa 2.8 m/s 76.9 mm
20:00 28.6° 1016.3 hPa 1.4 m/s 76.9 mm 29.1° 1016.0 hPa 1.3 m/s 23.6° 1019.4 hPa 2.6 m/s 76.9 mm
 05:06     21:07    Daglengte: 16:01 Vrijdag 28 Jun
02:00 20.7° 1017.6 hPa 1.9 m/s 76.9 mm 21.0° 1017.4 hPa 1.9 m/s 17.3° 1019.8 hPa 1.7 m/s 76.9 mm
08:00 24.0° 1017.4 hPa 1.0 m/s 76.9 mm 24.3° 1017.4 hPa 0.8 m/s 20.8° 1017.9 hPa 2.8 m/s 76.9 mm
14:00 33.7° 1015.1 hPa 2.4 m/s 76.9 mm 34.0° 1015.1 hPa 2.2 m/s 30.1° 1014.9 hPa 5.2 m/s 76.9 mm
20:00 31.5° 1012.9 hPa 1.0 m/s 76.9 mm 32.1° 1012.8 hPa 0.6 m/s 24.9° 1013.6 hPa 5.5 m/s 76.9 mm
 05:07     21:07    Daglengte: 16:00 Zaterdag 29 Jun
02:00 23.8° 1013.6 hPa 0.8 m/s 76.9 mm 24.3° 1013.5 hPa 0.7 m/s 18.8° 1014.6 hPa 2.5 m/s 76.9 mm
08:00 21.0° 1013.6 hPa 1.2 m/s 77.0 mm 21.0° 1013.6 hPa 1.2 m/s 77.0 mm
14:00 29.5° 1012.5 hPa 2.2 m/s 78.2 mm 29.5° 1012.5 hPa 2.2 m/s 78.2 mm
20:00 26.5° 1013.3 hPa 2.3 m/s 80.4 mm 26.5° 1013.3 hPa 2.3 m/s 80.4 mm
 05:07     21:07    Daglengte: 16:00 Zondag 30 Jun
02:00 20.6° 1015.9 hPa 1.2 m/s 87.2 mm 20.6° 1015.9 hPa 1.2 m/s 87.2 mm
08:00 22.9° 1015.5 hPa 0.9 m/s 0.8 mm
14:00 30.8° 1014.2 hPa 1.5 m/s 0.3 mm
20:00 26.3° 1014.0 hPa 0.8 m/s 1.0 mm
 05:08     21:06    Daglengte: 15:58 Maandag 01 Jul
02:00 18.5° 1014.9 hPa 0.9 m/s 0.6 mm
08:00 22.1° 1014.6 hPa 1.1 m/s 0.4 mm
14:00 28.2° 1012.9 hPa 2.1 m/s 1.2 mm
20:00 23.6° 1012.9 hPa 1.2 m/s 1.6 mm
 05:09     21:06    Daglengte: 15:57 Dinsdag 02 Jul
02:00 16.8° 1013.6 hPa 1.3 m/s 1.7 mm
08:00 19.0° 1013.4 hPa 1.6 m/s 2.3 mm
14:00 23.8° 1012.6 hPa 2.1 m/s 2.1 mm
20:00 21.3° 1012.7 hPa 1.4 m/s 1.3 mm
 05:09     21:06    Daglengte: 15:57 Woensdag 03 Jul
02:00 15.3° 1013.6 hPa 1.0 m/s 1.1 mm
08:00 17.4° 1013.8 hPa 0.8 m/s 1.9 mm
14:00 22.5° 1013.0 hPa 1.0 m/s 1.9 mm
20:00 19.9° 1012.9 hPa 0.6 m/s 2.1 mm
 05:10     21:06    Daglengte: 15:56 Donderdag 04 Jul
02:00 14.6° 1014.0 hPa 1.0 m/s 2.8 mm
08:00 16.7° 1014.8 hPa 1.3 m/s 1.6 mm
14:00 22.9° 1014.0 hPa 1.5 m/s 0.8 mm
20:00 20.5° 1014.0 hPa 0.8 m/s 1.1 mm
 05:11     21:05    Daglengte: 15:54 Vrijdag 05 Jul
02:00 14.0° 1015.5 hPa 0.8 m/s 0.5 mm
08:00 16.9° 1016.1 hPa 1.4 m/s 1.0 mm
FMI Hirlam - 7.5 km EWN WRFDA - 12 km DWD ICON - 7 km GFS - 25 km Basiskaart






























































Updatetijd (Europe/Amsterdam) Resolutie Lengte Stap
FMI Hirlam 07:00, 13:00, 19:00, 01:00 7.5 km 49h 1h
EWN WRFDA 10:00, 16:00, 22:00, 04:00 12 km 73h 1h
DWD ICON 06:00, 12:00, 18:00, 00:00 7 km 75h 1h
GFS 08:45, 14:45, 20:45, 02:45 25 km 237h 3h
30+ mm
25-30 mm
20-25 mm
15-20 mm
10-15 mm
6-10 mm
4-6 mm
2-4 mm
1-2 mm
0.5-1 mm
0.2-0.5 mm
0.1-0.2 mm
30+ mm
25-30 mm
20-25 mm
15-20 mm
10-15 mm
6-10 mm
4-6 mm
2-4 mm
1-2 mm
0.5-1 mm
0.2-0.5 mm
0.1-0.2 mm
Sneeuwval
Natte sneeuw
Hagel
Vorst
30+ mm
25-30 mm
20-25 mm
15-20 mm
10-15 mm
6-10 mm
4-6 mm
2-4 mm
1-2 mm
0.5-1 mm
0.2-0.5 mm
0.1-0.2 mm
Sneeuwval
Natte sneeuw
Hagel
Vorst
Onweer
50 mm
40 mm
30 mm
26 mm
22 mm
18 mm
14 mm
10 mm
9 mm
8 mm
7 mm
6 mm
5 mm
4.5 mm
4 mm
3.5 mm
3 mm
2.5 mm
2 mm
1.5 mm
1 mm
0.8 mm
0.6 mm
0.4 mm
0.2 mm
0.05 mm
35°
30°
25°
20°
15°
10°
-5°
-10°
-15°
-20°
-25°
-30°
-35°
120> km/h
105 km/h
90 km/h
75 km/h
60 km/h
50 km/h